[[{"header":{"parameterUnit":"m.s-1","parameterCategory":1,"la1":30.2991,"la2":30.254,"lo1":-89.0895,"lo2":-89.0444,"dy":0.0017,"dx":0.0017,"nx":28,"ny":28,"refTime":"2024-06-21T21:00:00:Z","depth":0,"parameterNumber":2,"parameterNumberName":"U-component_of_WINDS"},"data":[0,0,0,0,0,0,0,0,0,0,0,0,0,0,0,0,0,0,0,0,0,0,0,0,0,0,0,0,0,0,0,0,0,0,0,0,0,0,0,0,0,0,0,0,0,0,0,0,0,0,0,0,0,0,0,0,0,0,-0.2709,-0.2709,0,-0.2712,-0.2712,-0.2712,-0.2681,-0.268,-0.2679,-0.2678,-0.2683,-0.2684,-0.2685,0,0,0,0,0,0,0,0,0,0,0,0,0,-0.2676,-0.2677,-0.2709,-0.2709,-0.2709,-0.2712,-0.2712,-0.2712,-0.2681,-0.268,-0.2679,-0.2678,-0.2683,-0.2684,-0.2685,0,0,0,0,0,0,0,0,0,0,0,0,0,-0.2686,-0.2677,-0.2709,-0.2694,-0.2692,-0.2712,-0.2712,-0.2712,-0.2681,-0.268,-0.2678,-0.2677,-0.2683,-0.2684,-0.2685,-0.272,0,0,-0.269,-0.269,0,0,0,0,0,0,0,0,-0.2686,-0.2687,-0.2696,-0.2695,-0.2693,-0.2695,-0.2702,-0.2715,-0.2681,-0.2685,-0.2678,-0.2677,-0.2688,-0.2689,-0.2693,-0.2721,-0.2721,-0.269,-0.2691,-0.2691,-0.2692,0,0,0,0,0,0,0,-0.2685,-0.2687,-0.271,-0.2696,-0.2694,-0.2687,-0.2687,-0.2705,-0.2694,-0.2685,-0.2683,-0.2683,-0.2687,-0.2691,-0.2693,-0.2721,-0.269,-0.2691,-0.2692,-0.2693,-0.2777,-0.2778,0,0,0,0,0,0,-0.2686,-0.2687,-0.271,-0.271,-0.2686,-0.2689,-0.2688,-0.2696,-0.2694,-0.2692,-0.2684,-0.2682,-0.269,-0.2691,-0.2693,-0.2733,-0.2691,-0.2693,-0.2694,-0.2775,-0.2777,-0.2779,0,0,0,0,0,0,-0.2686,-0.2689,-0.271,-0.2698,-0.27,-0.269,-0.2699,-0.2696,-0.27,-0.2694,-0.2692,-0.2691,-0.2689,-0.2691,-0.2713,-0.2733,-0.2693,-0.2695,-0.2774,-0.2776,-0.2778,-0.2815,0,0,0,0,0,0,-0.2685,-0.2689,-0.2702,-0.2698,-0.2701,-0.2731,-0.27,-0.2697,-0.2703,-0.2699,-0.2699,-0.2697,-0.2688,-0.2711,-0.2715,-0.2734,-0.2696,-0.2772,-0.2775,-0.2777,-0.2812,-0.2818,-0.2823,0,0,0,0,0,-0.2684,-0.2713,-0.2703,-0.2706,-0.2717,-0.2732,-0.2733,-0.2721,-0.2704,-0.2718,-0.2713,-0.2697,-0.273,-0.2714,-0.2718,-0.2738,-0.2771,-0.2774,-0.2777,-0.2809,-0.2817,-0.2823,0,0,0,0,0,0,-0.272,-0.2712,-0.2701,-0.273,-0.2732,-0.2727,-0.2743,-0.273,-0.2737,-0.2734,-0.2718,-0.2718,-0.2744,-0.2743,-0.2725,-0.2771,-0.2747,-0.2751,-0.2771,-0.2778,-0.2783,-0.2784,-0.2697,0,0,0,0,0,-0.2731,-0.2744,-0.2736,-0.2762,-0.2764,-0.2753,-0.2759,-0.2749,-0.2751,-0.2752,-0.2749,-0.2752,-0.2762,-0.277,-0.2779,-0.2811,-0.281,-0.2826,-0.2832,-0.2837,-0.2841,-0.2857,-0.2864,-0.2789,-0.2789,-0.2789,0,0,-0.2755,-0.2752,-0.2761,-0.2769,-0.277,-0.2783,-0.2754,-0.277,-0.278,-0.2755,-0.2776,-0.2773,-0.2775,-0.2802,-0.2814,-0.2803,-0.2861,-0.2841,-0.2844,-0.2846,-0.2861,-0.2868,-0.2874,-0.2791,-0.279,-0.279,0,0,-0.2805,-0.2804,-0.2825,-0.2826,-0.2826,-0.2818,-0.2824,-0.282,-0.2817,-0.2838,-0.2819,-0.2831,-0.2849,-0.2851,-0.2855,-0.2903,-0.2889,-0.2906,-0.2936,-0.2952,-0.2958,-0.2963,-0.298,-0.2987,-0.291,-0.291,-0.291,0,-0.2835,-0.2854,-0.2838,-0.2855,-0.2859,-0.2835,-0.2856,-0.2858,-0.2862,-0.2865,-0.2851,-0.2873,-0.2873,-0.29,-0.2911,-0.2915,-0.292,-0.2907,-0.2958,-0.2963,-0.2968,-0.2984,-0.2991,-0.2912,-0.2912,-0.2912,-0.2912,0,-0.289,-0.2903,-0.292,-0.2923,-0.2929,-0.2948,-0.2935,-0.2943,-0.2932,-0.2926,-0.2947,-0.2945,-0.2953,-0.2959,-0.2949,-0.2984,-0.2977,-0.2961,-0.2937,-0.2978,-0.2993,-0.2999,-0.2915,-0.2915,-0.2914,-0.2913,0,0,-0.2965,-0.2958,-0.2964,-0.2965,-0.2963,-0.2973,-0.299,-0.2997,-0.3004,-0.3007,-0.3021,-0.3036,-0.3021,-0.3025,-0.3014,-0.3028,-0.3066,-0.3011,-0.301,-0.3021,-0.3105,-0.3117,-0.3125,-0.3056,-0.3057,-0.3058,-0.3105,0,-0.3014,-0.3043,-0.3029,-0.3059,-0.3071,-0.3048,-0.3063,-0.3063,-0.3057,-0.3066,-0.306,-0.3071,-0.305,-0.3052,-0.3065,-0.3059,-0.3083,-0.3055,-0.307,-0.307,-0.3071,-0.3133,-0.3146,-0.319,-0.311,-0.3111,-0.3112,0,-0.3076,-0.308,-0.3111,-0.3105,-0.311,-0.3124,-0.3128,-0.3137,-0.3136,-0.3131,-0.3134,-0.312,-0.3137,-0.3112,-0.3134,-0.3116,-0.312,-0.3118,-0.312,-0.3121,-0.3095,-0.3137,-0.3204,-0.3211,-0.3121,-0.312,-0.312,0,-0.3128,-0.3141,-0.3161,-0.3163,-0.3156,-0.3166,-0.3164,-0.3162,-0.3167,-0.317,-0.3173,-0.3179,-0.3183,-0.3188,-0.3176,-0.3159,-0.32,-0.3174,-0.3196,-0.3196,-0.3207,-0.3207,-0.3277,-0.3209,-0.3209,-0.3208,-0.3208,0,-0.3185,-0.3205,-0.3184,-0.3197,-0.3219,-0.3202,-0.3224,-0.3219,-0.3217,-0.3228,-0.3208,-0.322,-0.3202,-0.3211,-0.3202,-0.3222,-0.3223,-0.322,-0.3217,-0.3222,-0.3223,-0.3226,-0.3223,-0.321,-0.321,-0.3209,-0.3209,0,-0.3247,-0.3234,-0.3255,-0.3246,-0.3244,-0.3261,-0.3254,-0.3265,-0.3257,-0.3271,-0.3274,-0.3261,-0.3271,-0.3259,-0.3268,-0.3261,-0.3288,-0.328,-0.3288,-0.3286,-0.3309,-0.3307,-0.3385,-0.3394,-0.3319,-0.332,-0.332,0,-0.3285,-0.33,-0.3292,-0.3297,-0.3296,-0.3306,-0.331,-0.3293,-0.3298,-0.3297,-0.3309,-0.3316,-0.3322,-0.3338,-0.333,-0.3337,-0.333,-0.3356,-0.3331,-0.3335,-0.333,-0.333,-0.3331,-0.3362,-0.3363,-0.3364,-0.3364,0,-0.3353,-0.3345,-0.3352,-0.3355,-0.3361,-0.3363,-0.3364,-0.337,-0.3352,-0.3359,-0.3368,-0.3372,-0.338,-0.3388,-0.3392,-0.339,-0.3374,-0.3372,-0.3377,-0.3383,-0.3387,-0.3385,-0.3303,-0.3371,-0.337,-0.3369,-0.3369,-0.3369,-0.3404,-0.3416,-0.3412,-0.342,-0.3418,-0.3419,-0.3429,-0.3421,-0.3428,-0.3433,-0.3422,-0.3434,-0.3431,-0.3435,-0.3434,-0.3443,-0.3431,-0.3439,-0.3442,-0.3444,-0.3448,-0.3385,-0.3443,-0.3443,-0.3443,-0.3443,-0.3443,0,-0.3472,-0.3467,-0.3474,-0.3475,-0.3481,-0.3464,-0.3464,-0.347,-0.348,-0.3479,-0.3484,-0.3494,-0.3501,-0.3492,-0.3498,-0.3507,-0.35,-0.3509,-0.3508,-0.3508,-0.3457,-0.3452,-0.3514,-0.3514,-0.3514,-0.3514,-0.3514,-0.3514,-0.3508,-0.3526,-0.3518,-0.3535,-0.3531,-0.3541,-0.3542,-0.3543,-0.3541,-0.3553,-0.3559,-0.3553,-0.3548,-0.3553,-0.3558,-0.3556,-0.3559,-0.3571,-0.3566,-0.3519,-0.3512,-0.3505,-0.35,-0.3571,-0.3572,-0.3616,-0.3616,-0.3617]},{"header":{"parameterUnit":"m.s-1","parameterCategory":1,"la1":30.2991,"la2":30.254,"lo1":-89.0895,"lo2":-89.0444,"dy":0.0017,"dx":0.0017,"nx":28,"ny":28,"refTime":"2024-06-21T21:00:00:Z","depth":0,"parameterNumber":3,"parameterNumberName":"V-component_of_WINDS"},"data":[0,0,0,0,0,0,0,0,0,0,0,0,0,0,0,0,0,0,0,0,0,0,0,0,0,0,0,0,0,0,0,0,0,0,0,0,0,0,0,0,0,0,0,0,0,0,0,0,0,0,0,0,0,0,0,0,0,0,-2.513,-2.5131,0,-2.5203,-2.5204,-2.5205,-2.5194,-2.5192,-2.5191,-2.519,-2.5262,-2.5265,-2.5268,0,0,0,0,0,0,0,0,0,0,0,0,0,-2.4977,-2.498,-2.513,-2.5131,-2.5132,-2.5203,-2.5204,-2.5205,-2.5194,-2.5192,-2.5191,-2.5189,-2.5261,-2.5265,-2.5268,0,0,0,0,0,0,0,0,0,0,0,0,0,-2.5046,-2.4981,-2.513,-2.5135,-2.5136,-2.5203,-2.5204,-2.5205,-2.5194,-2.5192,-2.519,-2.5189,-2.526,-2.5264,-2.5269,-2.5334,0,0,-2.5283,-2.5285,0,0,0,0,0,0,0,0,-2.5042,-2.5052,-2.5133,-2.5135,-2.5136,-2.5187,-2.5177,-2.5248,-2.5195,-2.5172,-2.519,-2.5188,-2.5239,-2.5245,-2.5263,-2.5338,-2.5341,-2.5283,-2.5286,-2.5288,-2.529,0,0,0,0,0,0,0,-2.5038,-2.5049,-2.5159,-2.5134,-2.5136,-2.5132,-2.514,-2.519,-2.5215,-2.5174,-2.5173,-2.5182,-2.5239,-2.5258,-2.5264,-2.5342,-2.5283,-2.5287,-2.529,-2.5292,-2.5473,-2.5475,0,0,0,0,0,0,-2.5032,-2.5045,-2.5156,-2.5161,-2.5084,-2.5137,-2.5145,-2.5173,-2.5214,-2.5219,-2.5184,-2.5181,-2.5251,-2.5259,-2.5267,-2.5345,-2.5288,-2.5292,-2.5295,-2.5471,-2.5474,-2.5476,0,0,0,0,0,0,-2.5029,-2.5042,-2.5153,-2.5103,-2.5117,-2.5141,-2.5172,-2.5175,-2.5194,-2.5222,-2.5226,-2.5199,-2.525,-2.526,-2.5318,-2.5347,-2.5295,-2.5299,-2.5469,-2.5472,-2.5475,-2.5503,0,0,0,0,0,0,-2.5024,-2.5041,-2.5067,-2.5103,-2.5119,-2.5204,-2.5174,-2.5178,-2.5203,-2.52,-2.5237,-2.5241,-2.5249,-2.5311,-2.5322,-2.5353,-2.5302,-2.5466,-2.547,-2.5474,-2.5499,-2.5506,-2.5513,0,0,0,0,0,-2.5019,-2.5071,-2.5068,-2.5082,-2.5152,-2.5206,-2.5215,-2.5224,-2.5205,-2.5231,-2.5248,-2.524,-2.5343,-2.5317,-2.5329,-2.5362,-2.5464,-2.5469,-2.5473,-2.5496,-2.5505,-2.5512,0,0,0,0,0,0,-2.5037,-2.5076,-2.5073,-2.5139,-2.5169,-2.5204,-2.5237,-2.5233,-2.5269,-2.5265,-2.5274,-2.5282,-2.534,-2.5357,-2.5327,-2.5427,-2.5401,-2.5408,-2.5414,-2.5422,-2.5429,-2.5423,-2.5306,0,0,0,0,0,-2.5049,-2.509,-2.5122,-2.5177,-2.5192,-2.5212,-2.5235,-2.524,-2.5271,-2.5283,-2.5305,-2.5335,-2.5374,-2.5399,-2.5436,-2.5502,-2.5509,-2.553,-2.5537,-2.5542,-2.5548,-2.5583,-2.5593,-2.5491,-2.5491,-2.5491,0,0,-2.5073,-2.51,-2.5125,-2.5181,-2.5205,-2.5246,-2.5223,-2.5267,-2.5298,-2.529,-2.5345,-2.5362,-2.5396,-2.5458,-2.5486,-2.5473,-2.5578,-2.5548,-2.5552,-2.5555,-2.5589,-2.5598,-2.5607,-2.5494,-2.5493,-2.5493,0,0,-2.5138,-2.5163,-2.5211,-2.5236,-2.5273,-2.5285,-2.5297,-2.5332,-2.5343,-2.5399,-2.5394,-2.543,-2.5497,-2.5521,-2.5542,-2.5616,-2.5609,-2.5628,-2.5662,-2.5696,-2.5704,-2.5711,-2.5736,-2.5745,-2.5634,-2.5634,-2.5634,0,-2.5164,-2.5226,-2.5236,-2.5282,-2.5306,-2.5302,-2.535,-2.5373,-2.542,-2.5436,-2.5422,-2.5505,-2.5528,-2.5594,-2.5612,-2.563,-2.5642,-2.5623,-2.5702,-2.5709,-2.5716,-2.574,-2.5749,-2.5636,-2.5635,-2.5635,-2.5635,0,-2.5255,-2.5299,-2.5333,-2.5379,-2.5407,-2.5454,-2.547,-2.5497,-2.5499,-2.5513,-2.5569,-2.5596,-2.5638,-2.5654,-2.5657,-2.5721,-2.5712,-2.57,-2.5673,-2.5727,-2.575,-2.5759,-2.5638,-2.5638,-2.5637,-2.5637,0,0,-2.5333,-2.5384,-2.5396,-2.5417,-2.5457,-2.549,-2.5536,-2.5578,-2.5601,-2.5633,-2.5671,-2.5727,-2.5716,-2.574,-2.5745,-2.5774,-2.583,-2.5758,-2.5759,-2.577,-2.5901,-2.5909,-2.592,-2.5826,-2.5828,-2.5829,-2.5898,0,-2.5401,-2.5483,-2.5493,-2.5566,-2.5605,-2.5602,-2.5642,-2.567,-2.5684,-2.5719,-2.5734,-2.5774,-2.5757,-2.5771,-2.58,-2.5817,-2.5856,-2.5812,-2.586,-2.5861,-2.585,-2.5932,-2.5941,-2.6004,-2.5907,-2.5908,-2.5909,0,-2.5492,-2.5527,-2.5604,-2.5638,-2.5655,-2.569,-2.5729,-2.5763,-2.5795,-2.5803,-2.5829,-2.583,-2.5876,-2.5849,-2.5911,-2.5881,-2.5901,-2.5913,-2.5915,-2.5919,-2.5888,-2.5936,-2.6024,-2.6033,-2.5924,-2.5923,-2.5921,0,-2.554,-2.5606,-2.566,-2.5678,-2.572,-2.5744,-2.5763,-2.5792,-2.5817,-2.5851,-2.5866,-2.5905,-2.5925,-2.5955,-2.5965,-2.5945,-2.6027,-2.6001,-2.6034,-2.6033,-2.605,-2.6049,-2.6141,-2.6065,-2.6065,-2.6065,-2.6065,0,-2.5614,-2.566,-2.5682,-2.5715,-2.5767,-2.5778,-2.5828,-2.5845,-2.5872,-2.5907,-2.5907,-2.594,-2.5953,-2.5987,-2.5996,-2.6046,-2.6056,-2.6062,-2.6064,-2.6062,-2.6061,-2.6074,-2.6069,-2.6068,-2.6067,-2.6067,-2.6066,0,-2.5675,-2.5692,-2.5751,-2.5785,-2.5795,-2.5831,-2.586,-2.5892,-2.5906,-2.595,-2.5961,-2.5983,-2.6024,-2.6038,-2.6087,-2.6093,-2.615,-2.6149,-2.614,-2.614,-2.6171,-2.6168,-2.6274,-2.6288,-2.6205,-2.6206,-2.6206,0,-2.5721,-2.5757,-2.5795,-2.582,-2.5839,-2.5878,-2.5903,-2.5915,-2.594,-2.5979,-2.6005,-2.6046,-2.6079,-2.6145,-2.6164,-2.6201,-2.62,-2.6234,-2.6205,-2.6202,-2.6198,-2.6196,-2.6199,-2.6239,-2.624,-2.6241,-2.6242,0,-2.58,-2.5807,-2.5843,-2.5883,-2.5913,-2.5944,-2.5974,-2.5994,-2.601,-2.6039,-2.6081,-2.6107,-2.6157,-2.6197,-2.6236,-2.6253,-2.625,-2.6251,-2.626,-2.6258,-2.6251,-2.6254,-2.6153,-2.6248,-2.6247,-2.6247,-2.6247,-2.6246,-2.5854,-2.5886,-2.5917,-2.5958,-2.5982,-2.601,-2.6041,-2.6059,-2.6095,-2.6137,-2.6142,-2.6187,-2.6217,-2.6268,-2.6288,-2.6322,-2.6312,-2.6326,-2.6329,-2.6332,-2.6334,-2.6246,-2.6329,-2.6329,-2.6329,-2.6329,-2.6329,0,-2.5932,-2.5952,-2.599,-2.6032,-2.6064,-2.6059,-2.6092,-2.6118,-2.6159,-2.6187,-2.622,-2.6268,-2.6307,-2.6329,-2.6367,-2.6391,-2.639,-2.64,-2.6398,-2.6402,-2.6341,-2.6329,-2.64,-2.64,-2.64,-2.64,-2.64,-2.64,-2.5976,-2.6028,-2.6039,-2.6102,-2.6122,-2.6167,-2.6186,-2.6212,-2.6234,-2.6288,-2.6321,-2.6335,-2.6361,-2.6401,-2.6436,-2.6442,-2.6455,-2.6466,-2.647,-2.6413,-2.6406,-2.6399,-2.6387,-2.647,-2.647,-2.6528,-2.6528,-2.6529]}]]